Tracking 17921 objects as of 18-January-2017
HD Live streaming from Space Station
objects crossing your sky now

EUTELSAT 2-F4

Track EUTELSAT 2-F4 now!
EUTELSAT 2-F4 is classified as:


NORAD ID: 22028
Int'l Code: 1992-041B
Perigee: 36,112.7 km
Apogee: 36,195.5 km
Inclination: 12.7 °
Period: 1,454.5 minutes
Semi major axis: 42525 km
RCS: 3.1622 m2 (large)
Launch date: July 9, 1992
Source: European Telecommunications Satellite Organization (EUTE)
Launch site: FRENCH GUIANA (FRGUI)
Your satellite tracking list
Your tracking list is empty





NASA's NSSDC Master Catalog

Two Line Element Set (TLE):
1 22028U 92041B   17016.83377737 -.00000274  00000-0  00000+0 0  9993
2 22028  12.6966  33.1904 0009731 208.8580 301.2171  0.99079137 82164
Source of the keplerian elements: AFSPC